Wind_Speed
20 21 21 21 21 21 22 21 20 20 22 24 25 25 25 26 28 30 31 33 34 34 33 31 30 29 28 27 27 26 26 25 26 25 24 24 24 24 25 25 25 25 25 25
20 20 21 20 20 20 21 20 19 19 21 23 24 24 23 23 24 26 28 30 32 32 31 31 31 30 29 28 27 27 27 27 28 27 26 26 25 26 26 25 25 25 25 24
19 19 19 19 19 20 19 19 19 20 21 23 23 23 22 22 22 23 25 27 28 30 30 31 32 31 30 29 29 29 28 27 27 26 26 26 25 25 26 26 26 24 24 24
16 17 16 17 18 19 18 19 20 20 21 21 22 22 22 22 21 21 22 23 25 27 28 30 31 31 30 29 28 27 26 26 27 26 25 25 25 24 24 24 25 25 25 24
15 15 15 16 16 18 18 19 20 21 22 21 21 22 20 20 19 19 20 20 21 23 26 28 29 29 29 27 26 26 25 26 26 26 24 23 24 23 23 23 22 22 22 22
13 14 15 16 16 18 18 19 20 21 22 21 21 22 21 18 19 19 19 20 20 21 23 25 26 27 27 26 26 25 25 24 24 24 23 21 22 21 20 21 21 21 21 20
13 13 15 16 16 17 18 18 19 19 19 20 19 21 21 19 20 19 20 20 21 22 22 23 24 24 25 26 26 26 25 24 23 23 22 21 21 20 19 19 20 20 20 20
13 12 13 14 15 15 16 17 17 18 18 18 19 20 20 19 19 20 20 20 20 21 22 23 24 24 25 25 26 26 25 24 22 23 24 22 22 22 20 20 22 22 23 24
13 12 13 13 14 14 15 15 15 17 18 18 17 17 17 18 19 19 20 20 20 21 22 23 23 24 24 24 25 25 25 24 24 23 23 24 23 23 22 22 24 25 26 26
12 12 11 13 12 12 13 13 14 15 16 16 16 16 17 17 17 17 18 20 20 20 21 22 23 23 24 23 24 25 24 25 24 23 23 24 25 25 25 25 26 26 27 27
10 11 11 12 12 12 12 13 14 15 15 16 16 15 15 15 16 16 16 18 19 18 19 21 22 24 24 24 24 25 25 25 24 23 23 24 25 25 25 25 27 27 28 28
10 11 11 11 10 10 11 12 13 14 14 14 15 13 12 13 14 14 14 14 16 16 17 19 20 22 23 23 24 24 24 24 24 24 24 24 24 25 26 27 27 28 29 30
10 10 10 10 10 10 10 10 12 13 14 14 13 11 11 13 13 12 12 13 14 16 16 16 17 19 20 22 22 23 24 24 24 24 24 24 24 25 27 28 29 30 31 32
10 10 10 10 10 9 10 10 10 11 12 12 12 12 12 13 13 13 12 13 14 14 14 15 15 17 18 20 22 23 23 24 24 25 26 26 26 27 28 29 29 30 31 32
11 10 10 10 9 10 10 10 10 10 11 11 12 13 13 13 13 14 13 13 13 14 15 15 15 16 17 19 21 22 23 24 25 26 26 26 27 28 28 29 30 30 31 32
10 10 9 9 9 10 9 9 9 10 11 12 13 13 13 13 14 14 14 13 13 14 14 16 17 17 18 19 20 21 22 23 24 25 26 26 27 27 28 28 29 30 30 31
10 9 8 8 8 8 8 8 9 10 11 12 13 13 14 14 14 14 14 14 14 13 14 15 16 17 18 19 20 21 22 22 23 24 25 25 25 26 26 27 28 28 28 29
8 7 7 7 7 7 7 8 9 10 11 11 12 12 13 13 13 13 13 13 13 13 14 14 15 17 18 18 19 20 21 21 22 23 23 24 24 25 25 26 26 26 26 26
7 6 5 4 5 5 6 8 9 9 9 10 11 11 11 12 12 12 12 12 13 13 14 15 16 17 17 18 18 19 20 20 21 21 22 23 23 23 23 24 24 24 24 24
6 5 4 4 4 5 7 8 8 9 9 9 9 10 11 11 11 11 12 12 12 13 15 15 16 17 18 18 19 19 19 19 20 20 21 22 22 22 22 22 22 22 22 23
5 4 4 4 3 5 6 7 8 8 9 9 9 10 11 11 11 11 11 11 12 13 13 14 15 15 15 16 16 16 17 17 17 18 19 20 20 20 20 20 20 21 21 21
5 3 3 2 3 5 6 6 8 9 10 10 10 10 10 10 10 10 10 10 10 10 10 11 12 12 13 13 14 14 15 15 16 17 17 18 18 18 18 18 19 19 19 19
5 3 1 2 3 4 6 7 9 10 10 10 10 10 10 10 9 9 8 8 8 8 9 9 10 10 11 12 13 13 14 15 16 16 16 17 18 18 18 18 18 17 17 16
4 3 1 1 3 5 6 7 9 10 10 10 10 10 10 10 9 8 7 6 6 6 7 7 8 9 10 11 11 12 12 13 14 15 16 17 17 17 17 17 16 15 14 14
5 3 1 1 3 5 6 8 10 10 10 11 10 10 10 10 9 9 8 7 6 6 7 7 8 8 9 10 11 11 12 12 13 13 14 14 14 14 14 13 13 12 11 11
5 3 1 2 3 5 7 9 10 11 11 11 11 11 11 10 10 10 9 8 8 7 7 7 7 8 9 9 9 9 9 10 10 11 11 11 11 11 11 10 9 9 9 9
Wind_Direction
285 284 282 281 279 277 274 271 267 261 257 256 255 255 253 250 247 244 242 242 243 245 245 247 251 255 260 265 269 270 268 265 259 254 247 242 242 240 237 236 235 235 237 239
285 283 283 281 279 277 274 271 267 260 257 257 256 256 254 251 249 246 242 241 241 243 244 246 250 253 259 265 270 271 269 267 259 254 252 248 245 240 238 236 238 239 237 239
283 284 284 281 281 279 275 273 267 260 258 258 257 257 254 250 249 245 241 240 241 242 244 246 249 254 259 264 268 271 270 267 261 256 249 247 242 241 240 241 241 243 243 244
284 285 285 283 281 279 275 272 269 262 259 259 257 258 254 249 246 241 239 239 240 240 243 245 249 252 256 261 264 265 264 262 261 255 254 245 241 243 244 241 240 242 245 248
287 287 287 285 281 279 275 269 267 265 262 261 259 261 258 253 247 243 241 241 243 243 243 245 248 252 254 257 260 259 257 258 260 257 253 250 243 241 241 238 240 244 248 253
290 292 292 287 281 279 276 270 267 265 264 264 261 261 260 256 253 249 247 248 250 249 248 248 251 253 253 255 256 254 255 258 263 263 259 256 250 245 244 245 244 249 255 257
294 296 293 288 283 278 273 272 269 267 266 266 263 259 260 263 260 255 252 253 255 253 254 253 251 251 254 256 256 257 256 259 263 264 264 263 255 249 248 248 248 253 258 261
300 300 296 293 286 280 273 270 271 274 272 268 266 262 262 263 262 261 258 260 260 256 255 254 254 253 256 258 258 258 259 261 263 264 264 267 258 254 252 252 254 256 259 261
303 302 296 292 287 280 275 270 271 273 272 269 265 263 263 264 266 266 265 266 265 261 257 256 256 255 257 257 257 259 262 262 262 263 266 265 263 259 255 256 257 259 261 263
307 306 298 292 288 284 278 272 270 272 272 271 270 269 268 265 270 273 270 267 268 266 259 256 256 256 256 258 258 258 262 262 261 262 263 261 263 264 261 260 260 262 264 266
306 307 301 292 287 285 279 276 273 272 271 272 274 274 271 271 276 279 274 267 269 268 263 258 256 254 256 257 258 261 261 259 261 262 262 261 262 263 262 263 264 266 268 270
300 304 299 291 286 285 282 276 272 271 274 277 280 277 274 276 281 280 276 271 270 274 269 266 258 255 256 257 258 260 262 261 262 263 263 263 263 264 265 267 269 271 273 274
294 297 293 289 288 286 283 279 275 274 275 278 284 290 282 280 285 285 280 278 276 276 274 269 261 262 261 259 260 261 262 263 264 264 264 267 268 269 270 271 272 273 275 276
286 290 293 294 293 286 287 282 276 278 278 282 286 290 289 287 287 288 284 282 280 278 274 270 263 262 263 262 262 263 263 264 264 265 266 268 270 270 271 272 273 274 275 276
286 287 286 289 288 283 285 281 277 279 282 285 287 291 295 293 291 287 286 285 279 276 271 268 263 262 262 262 263 263 264 264 264 264 266 267 268 270 271 272 273 274 275 277
289 288 286 284 283 284 290 284 283 284 285 289 290 290 294 292 291 289 288 287 282 278 271 266 264 264 263 263 264 265 266 266 266 267 268 269 270 271 273 274 275 276 278 279
288 288 287 287 286 284 286 287 285 292 295 292 292 292 291 291 290 287 286 284 282 279 274 271 269 267 266 269 269 268 269 270 271 273 274 274 275 275 275 276 276 277 279 281
289 288 287 285 284 283 294 297 297 297 296 296 294 292 293 293 293 288 284 281 278 273 270 267 267 269 271 273 274 274 275 275 275 276 276 278 278 277 278 279 280 281 282 283
284 291 293 299 303 309 309 308 309 309 303 301 299 299 299 299 298 293 289 281 277 275 274 271 270 272 275 277 279 281 279 276 275 276 279 281 282 282 281 281 282 283 283 285
268 277 287 305 312 321 326 318 317 317 313 312 310 312 312 309 305 298 292 284 278 275 276 275 277 279 279 278 279 281 281 279 278 279 281 283 284 285 284 283 283 285 288 290
258 270 280 296 318 328 333 332 334 330 329 327 325 325 323 318 312 305 295 288 283 281 280 280 280 282 282 282 282 281 281 281 282 281 282 284 287 287 286 286 287 289 291 292
244 263 271 295 324 332 342 348 350 346 343 340 337 335 332 328 321 315 308 299 294 294 292 289 287 287 286 286 285 284 284 285 286 287 287 288 290 290 290 291 292 293 294 294
231 237 244 323 348 358 357 359 358 354 350 349 348 346 344 342 338 329 322 314 306 302 301 298 295 296 296 295 291 289 288 289 289 290 290 292 293 294 294 295 295 295 296 296
209 203 202 6 11 8 8 6 3 1 0 0 359 359 360 357 356 352 347 340 331 321 316 314 312 311 308 305 302 298 296 295 295 297 297 298 298 297 296 296 296 297 298 297
189 173 148 51 27 28 19 13 9 8 10 10 11 12 11 10 10 8 5 1 354 340 332 327 324 321 317 312 307 302 299 300 301 303 303 305 305 304 303 301 301 301 300 301
180 170 144 60 40 34 27 22 19 18 18 17 17 17 18 18 18 17 14 12 10 3 354 349 345 340 333 328 322 316 313 311 312 313 313 314 314 314 313 311 309 308 306 307
Height
5791 5791 5789 5788 5787 5786 5786 5786 5786 5786 5785 5785 5786 5787 5789 5790 5792 5794 5796 5799 5802 5805 5809 5812 5814 5816 5817 5818 5818 5818 5818 5818 5818 5819 5821 5822 5822 5824 5826 5828 5829 5831 5833 5834
5787 5786 5785 5783 5782 5782 5781 5781 5782 5782 5781 5781 5782 5783 5784 5785 5787 5789 5791 5793 5796 5799 5802 5805 5808 5810 5812 5813 5813 5813 5813 5812 5813 5814 5815 5816 5817 5818 5820 5822 5824 5825 5827 5829
5783 5782 5780 5779 5779 5778 5778 5777 5778 5778 5777 5777 5778 5779 5780 5781 5783 5784 5786 5789 5791 5794 5797 5799 5802 5804 5806 5806 5807 5808 5807 5807 5807 5807 5809 5810 5811 5812 5815 5817 5819 5820 5822 5823
5779 5778 5776 5776 5775 5774 5774 5774 5773 5773 5773 5773 5775 5775 5776 5777 5778 5780 5782 5784 5786 5789 5791 5794 5796 5798 5800 5801 5802 5802 5802 5802 5802 5803 5803 5804 5805 5807 5809 5810 5813 5814 5816 5817
5775 5774 5773 5772 5771 5770 5770 5769 5769 5769 5769 5770 5771 5771 5773 5773 5775 5776 5778 5779 5781 5784 5786 5788 5790 5792 5794 5795 5796 5796 5797 5798 5798 5798 5798 5799 5799 5801 5804 5805 5807 5809 5810 5811
5772 5771 5769 5768 5767 5766 5766 5766 5765 5765 5766 5767 5767 5768 5769 5770 5771 5773 5774 5776 5777 5779 5781 5783 5785 5786 5788 5790 5791 5791 5792 5793 5793 5793 5794 5793 5794 5795 5797 5799 5801 5803 5805 5806
5769 5768 5766 5764 5763 5763 5762 5762 5762 5762 5762 5763 5763 5763 5765 5766 5767 5768 5770 5771 5773 5774 5776 5777 5779 5781 5782 5783 5785 5786 5786 5786 5786 5787 5788 5788 5788 5789 5792 5794 5795 5797 5799 5800
5765 5765 5762 5760 5759 5759 5758 5759 5759 5759 5759 5759 5759 5760 5762 5762 5763 5764 5765 5766 5767 5768 5770 5771 5773 5775 5776 5777 5778 5779 5780 5780 5780 5781 5782 5782 5783 5784 5786 5788 5790 5791 5793 5794
5762 5761 5759 5757 5755 5755 5755 5755 5756 5756 5755 5756 5756 5757 5758 5758 5759 5760 5761 5761 5762 5762 5764 5766 5767 5769 5770 5770 5771 5772 5773 5774 5775 5776 5776 5777 5777 5779 5780 5782 5784 5785 5786 5787
5759 5758 5757 5755 5754 5753 5753 5752 5752 5752 5752 5752 5753 5754 5755 5755 5755 5756 5756 5756 5757 5757 5758 5759 5761 5762 5763 5764 5765 5766 5767 5768 5769 5769 5770 5772 5773 5773 5774 5776 5777 5778 5779 5779
5756 5755 5754 5753 5751 5751 5751 5750 5750 5750 5750 5750 5750 5753 5751 5752 5752 5752 5752 5752 5752 5752 5753 5753 5755 5756 5757 5758 5759 5760 5761 5762 5762 5763 5764 5765 5766 5767 5769 5769 5770 5770 5771 5771
5754 5753 5751 5750 5749 5748 5748 5748 5748 5748 5747 5747 5747 5751 5748 5748 5748 5747 5747 5747 5748 5747 5748 5748 5749 5750 5751 5752 5753 5754 5754 5755 5756 5757 5758 5758 5759 5760 5761 5761 5762 5763 5763 5763
5752 5751 5749 5748 5749 5748 5746 5745 5745 5745 5745 5745 5745 5748 5745 5745 5744 5743 5743 5743 5743 5743 5742 5743 5743 5744 5745 5745 5747 5748 5748 5749 5750 5751 5752 5752 5752 5753 5753 5754 5754 5755 5755 5755
5750 5749 5748 5747 5745 5744 5744 5743 5743 5743 5743 5742 5742 5743 5742 5741 5740 5740 5739 5739 5738 5738 5738 5738 5738 5738 5739 5740 5741 5741 5742 5743 5744 5744 5745 5745 5746 5746 5746 5746 5746 5746 5746 5746
5747 5747 5745 5744 5743 5742 5742 5741 5741 5740 5740 5740 5740 5739 5738 5738 5737 5736 5735 5734 5734 5733 5733 5733 5733 5733 5734 5734 5735 5735 5736 5737 5737 5738 5738 5738 5738 5738 5738 5738 5738 5738 5737 5737
5745 5744 5743 5742 5741 5740 5739 5739 5738 5738 5738 5737 5736 5736 5735 5734 5733 5732 5731 5730 5729 5729 5728 5728 5728 5728 5728 5729 5729 5729 5729 5730 5730 5730 5730 5730 5730 5730 5730 5730 5729 5729 5728 5728
5742 5742 5741 5740 5739 5738 5738 5737 5737 5736 5735 5734 5733 5733 5731 5730 5728 5727 5726 5725 5725 5724 5724 5723 5723 5723 5723 5723 5723 5723 5722 5722 5722 5723 5722 5722 5722 5722 5722 5721 5721 5720 5719 5719
5741 5740 5739 5738 5738 5737 5739 5736 5734 5734 5732 5731 5730 5729 5727 5726 5724 5723 5722 5721 5720 5720 5719 5718 5718 5718 5717 5717 5717 5716 5716 5716 5716 5715 5715 5715 5714 5714 5714 5713 5713 5712 5712 5711
5740 5739 5738 5737 5736 5736 5736 5734 5733 5731 5730 5728 5727 5725 5723 5722 5720 5719 5718 5717 5716 5715 5714 5714 5713 5713 5712 5712 5711 5710 5710 5710 5710 5709 5708 5708 5707 5707 5707 5706 5706 5705 5704 5704
5738 5738 5738 5736 5735 5735 5735 5733 5730 5730 5728 5726 5724 5722 5720 5718 5717 5716 5714 5712 5711 5711 5710 5709 5709 5708 5707 5707 5706 5705 5705 5704 5704 5703 5702 5702 5701 5701 5700 5700 5699 5698 5697 5696
5737 5737 5736 5735 5734 5734 5733 5731 5729 5728 5727 5723 5721 5719 5717 5715 5714 5712 5710 5708 5707 5706 5706 5705 5704 5704 5703 5702 5701 5700 5700 5699 5699 5698 5697 5697 5696 5695 5694 5694 5693 5692 5691 5691
5736 5736 5735 5734 5734 5735 5731 5729 5728 5727 5723 5721 5718 5716 5714 5712 5710 5708 5706 5705 5704 5703 5702 5701 5700 5699 5698 5697 5697 5696 5695 5695 5694 5694 5693 5692 5691 5690 5689 5688 5687 5687 5686 5685
5735 5736 5735 5735 5735 5733 5730 5729 5727 5724 5722 5719 5717 5714 5712 5710 5708 5706 5704 5702 5701 5700 5699 5698 5697 5696 5695 5694 5693 5692 5691 5691 5690 5689 5688 5687 5686 5685 5684 5683 5682 5682 5681 5679
5735 5734 5734 5734 5733 5731 5730 5728 5726 5724 5721 5718 5716 5713 5711 5709 5706 5704 5702 5701 5699 5698 5697 5696 5695 5694 5692 5691 5690 5689 5688 5687 5686 5685 5684 5683 5682 5681 5680 5678 5677 5676 5676 5675
5734 5734 5734 5733 5733 5731 5730 5728 5726 5723 5721 5718 5715 5713 5710 5708 5706 5704 5702 5700 5699 5697 5696 5695 5694 5692 5691 5689 5687 5686 5685 5684 5683 5681 5680 5679 5678 5677 5675 5674 5673 5672 5672 5671
5733 5734 5734 5734 5733 5732 5730 5728 5726 5724 5721 5718 5716 5713 5711 5708 5706 5704 5702 5700 5698 5697 5696 5694 5692 5691 5689 5687 5685 5684 5683 5681 5680 5679 5678 5676 5675 5674 5672 5671 5670 5669 5669 5668